Time,B instrument,Bx,By,Bz,sigma B,Ion instrument,Status,Tp_par,Tp_perp,carrot,r_sun,clat,clong,earth_he_angle,n_p,vp_x,vp_y,vp_z,vth_p_par,vth_p_perp
1980-01-28 00:00:32,1,0.972662,-1.93741,3.24029,0.429957,1,1,78741.8,72191.8,1691,0.92690361,2.1585207,241.22168,291.21777,3.18842,508.4,12.6549,13.6216,36.0546,34.5225
1980-01-28 00:01:12,1,0.91958,-2.11538,3.3958,0.55865,1,1,64489.7,61608.4,1691,0.92690659,2.1584549,241.21362,291.21753,3.07606,514.819,22.4497,16.0797,32.629,31.8917
1980-01-28 00:01:53,1,0.70625,-2.16667,3.80833,1.17991,1,1,72068.7,62547.2,1691,0.92690659,2.1584549,241.20581,291.21753,3.15706,509.013,12.3302,14.9377,34.493,32.1338
1980-01-28 00:02:33,1,1.95232,-1.83841,2.87881,0.471198,1,1,71070.8,90249.4,1691,0.92690963,2.1583891,241.20166,291.21729,2.90694,508.136,14.2882,20.4903,34.2534,38.5994
1980-01-28 00:03:14,1,2.03286,-1.81429,2.85929,0.414541,1,1,103521.0,92179.0,1691,0.92691267,2.1583233,241.19385,291.21729,3.11048,502.785,16.2585,19.3388,41.3402,39.0098
1980-01-28 00:03:54,1,1.9068,-1.67415,3.11837,0.418414,1,1,95404.7,100225.0,1691,0.92691267,2.1583233,241.18994,291.21729,2.96737,505.711,13.3483,18.9366,39.6865,40.6766
1980-01-28 00:04:35,1,2.03497,-1.43217,2.93427,0.520081,1,1,86632.8,83178.8,1691,0.92691571,2.1582575,241.18188,291.21704,2.97579,502.995,7.40251,17.4714,37.818,37.0565
1980-01-28 00:05:15,1,2.375,-0.489865,3.04865,0.4565,1,1,78626.2,95965.5,1691,0.92691869,2.1581917,241.17773,291.2168,3.19043,505.15,4.71376,19.9418,36.0281,39.803
1980-01-28 00:05:56,1,2.66667,-0.76963,2.9837,0.400274,1,1,112394.0,117436.0,1691,0.92691869,2.1581917,241.16992,291.2168,3.34399,496.253,4.62804,21.49,43.0754,44.031
1980-01-28 00:06:36,1,2.75203,-0.731757,2.97162,0.384944,1,1,95807.6,90064.1,1691,0.92692173,2.1581259,241.16211,291.2168,3.0608,497.172,10.2486,18.8871,39.7702,38.5597
1980-01-28 00:07:17,1,2.4518,-0.569065,3.15108,0.470965,1,1,89264.8,99558.2,1691,0.92692477,2.158061,241.15796,291.21655,3.24027,495.289,2.26289,15.3202,38.3882,40.5412
1980-01-28 00:07:57,1,2.48163,-0.414286,3.10748,0.397802,1,1,79347.7,88822.8,1691,0.92692477,2.158061,241.15015,291.21655,3.04881,498.695,7.03076,19.0032,36.193,38.2931
1980-01-28 00:08:38,1,2.47703,-0.460135,2.67027,0.428746,1,1,101211.0,103759.0,1691,0.9269278,2.1579952,241.146,291.21631,3.32637,496.386,2.67417,19.4161,40.8762,41.3877
1980-01-28 00:09:18,1,2.51511,-0.415827,2.46043,0.448465,1,1,75695.0,101005.0,1691,0.92693079,2.1579294,241.13818,291.21631,3.0832,497.591,4.96168,25.1649,35.3502,40.8347
1980-01-28 00:09:59,1,2.46892,-0.202703,2.16216,0.412999,1,1,107382.0,118722.0,1691,0.92693079,2.1579294,241.13428,291.21631,3.36842,496.616,1.95371,23.2586,42.104,44.2714
1980-01-28 00:10:39,1,2.69161,-0.527972,2.5049,0.659649,1,1,84578.3,93554.2,1691,0.92693383,2.1578636,241.12622,291.21606,2.94017,497.505,9.76832,19.1703,37.3669,39.2997
1980-01-28 00:11:20,1,3.03309,-0.858993,2.5705,0.401554,1,1,91936.3,111609.0,1691,0.92693686,2.1577978,241.11816,291.21582,3.54257,491.803,6.69305,20.561,38.9584,42.9247
1980-01-28 00:12:00,1,3.15,-0.986806,2.83472,0.453009,1,1,82579.1,107207.0,1691,0.9269399,2.157732,241.11426,291.21582,2.96858,499.846,12.6331,17.017,36.9227,42.0697
1980-01-28 00:12:41,1,3.06043,-1.28561,2.75971,0.378733,1,1,140461.0,114690.0,1691,0.9269399,2.157732,241.10645,291.21582,3.3136,497.571,10.9601,16.4381,48.1544,43.5132
1980-01-28 00:13:21,1,3.20972,-1.29722,2.94722,0.409642,1,1,95541.2,102751.0,1691,0.92694288,2.1576662,241.10229,291.21558,3.02954,496.757,14.1492,15.6174,39.7149,41.1861
1980-01-28 00:14:02,1,2.92815,-1.11481,2.78815,0.432087,1,1,109074.0,131481.0,1691,0.92694592,2.1576014,241.09424,291.21533,3.61586,494.765,8.74971,20.0229,42.4345,46.5897
1980-01-28 00:14:42,1,3.04126,-0.967133,2.62378,0.362019,1,1,64061.8,96588.9,1691,0.92694592,2.1576014,241.08643,291.21533,3.04318,499.152,9.48306,21.9202,32.5205,39.932
1980-01-28 00:15:23,1,3.01857,-0.962143,2.74286,0.371906,1,1,120077.0,113631.0,1691,0.92694896,2.1575356,241.08252,291.21533,3.58822,503.722,4.7471,14.7358,44.5234,43.3118
1980-01-28 00:16:03,1,2.93197,-0.907483,3.09388,0.65676,1,1,77238.6,83605.0,1691,0.926952,2.1574697,241.07446,291.21509,3.153,501.447,9.9053,16.8012,35.7088,37.1513
1980-01-28 00:16:44,1,2.91,-0.902857,3.80286,0.463401,1,1,133424.0,112030.0,1691,0.926952,2.1574697,241.07056,291.21509,3.67672,501.703,6.29097,9.25911,46.9327,43.0057
1980-01-28 00:17:24,1,2.73957,-1.08058,3.16835,0.424354,1,1,106503.0,99541.4,1691,0.92695504,2.1574039,241.0625,291.21484,3.60338,503.507,11.2308,13.7054,41.9313,40.5378
1980-01-28 00:18:05,1,2.75827,-1.12446,3.3518,0.408206,1,1,120548.0,106234.0,1691,0.92695802,2.1573381,241.05859,291.21484,3.53522,501.192,9.74661,12.1794,44.6106,41.8783
1980-01-28 00:18:45,1,2.70486,-0.814583,2.95,0.744918,1,1,103837.0,101265.0,1691,0.92695802,2.1573381,241.05078,291.21484,3.21632,501.732,8.9919,13.7053,41.4033,40.8873
1980-01-28 00:19:26,1,3.13381,-0.68777,2.71655,0.402798,1,1,116050.0,113491.0,1691,0.92696106,2.1572723,241.04272,291.2146,3.48594,494.061,5.36901,15.8268,43.7704,43.285
1980-01-28 00:20:06,1,3.15612,-0.35036,2.65396,0.407264,1,1,73723.0,106989.0,1691,0.9269641,2.1572075,241.03857,291.21436,3.02583,498.766,6.65313,25.4497,34.8867,42.0269
1980-01-28 00:20:47,1,3.42714,-0.367857,2.68286,0.470266,1,1,121648.0,97980.7,1691,0.9269641,2.1572075,241.03076,291.21436,3.33924,482.21,1.37863,18.632,44.8137,40.2187
1980-01-28 00:21:27,1,3.41538,-0.174126,2.10979,0.386546,1,1,41728.7,80705.3,1691,0.92696714,2.1571417,241.02686,291.21436,2.32364,497.274,7.41731,28.7526,26.2467,36.5014
1980-01-28 00:22:08,1,3.37857,-0.197143,2.29786,0.412171,1,1,119581.0,122168.0,1691,0.92697012,2.1570759,241.0188,291.21411,3.50018,487.454,3.22159,22.408,44.4312,44.9093
1980-01-28 00:22:48,1,3.46643,-0.186713,2.25804,0.392338,1,1,63200.2,91799.3,1691,0.92697012,2.1570759,241.01489,291.21411,2.71941,493.721,6.34863,29.8564,32.3011,38.9294
1980-01-28 00:23:29,1,3.37122,-0.239568,2.22518,0.396923,1,1,74285.9,98248.6,1691,0.92697316,2.1570101,241.00684,291.21387,3.24868,483.176,2.28017,22.6649,35.0196,40.2737
1980-01-28 00:24:09,1,3.34583,-0.370833,2.32847,0.355006,1,1,68025.1,100719.0,1691,0.9269762,2.1569443,240.99902,291.21387,3.11756,498.084,6.62437,23.8526,33.5114,40.7769
1980-01-28 00:24:50,1,3.4763,-0.111111,2.26963,0.378133,1,1,80171.4,103499.0,1691,0.9269762,2.1569443,240.99512,291.21387,3.1328,481.152,3.28816,22.9708,36.3804,41.3357
1980-01-28 00:25:30,1,3.64632,-0.159559,2.57721,0.412712,1,1,93194.8,88164.2,1691,0.92697924,2.1568785,240.98706,291.21362,2.78693,490.568,7.60406,20.0149,39.2242,38.1508
1980-01-28 00:26:11,1,3.65105,-0.262937,2.67203,0.372846,1,1,51707.2,60335.8,1691,0.92698222,2.1568127,240.98291,291.21338,2.63805,477.918,5.56274,20.8329,29.2169,31.5606
1980-01-28 00:26:51,1,3.6965,-0.051049,2.63497,0.409936,1,1,90366.4,97008.2,1691,0.92698222,2.1568127,240.9751,291.21338,2.63049,492.316,5.39476,23.9239,38.6244,40.0186
1980-01-28 00:27:32,1,3.70429,-0.0385714,2.67857,0.381396,1,1,52811.2,79926.9,1691,0.92698526,2.1567478,240.96729,291.21338,2.82218,480.168,3.40678,20.0315,29.5271,36.3249
1980-01-28 00:28:12,1,3.72815,-0.0785185,2.73259,0.368152,1,1,127860.0,85657.2,1691,0.9269883,2.156682,240.96313,291.21313,2.64849,491.714,7.06996,21.6142,45.9435,37.6045
1980-01-28 00:28:53,1,3.70929,-0.0692857,2.78929,0.344236,1,1,53171.8,69464.4,1691,0.9269883,2.156682,240.95532,291.21313,2.81625,476.505,4.71456,20.9275,29.6277,33.8641
1980-01-28 00:29:33,1,3.77762,-0.0937063,3.04196,0.37974,1,1,103684.0,82590.6,1691,0.92699134,2.1566162,240.95117,291.21289,2.71778,493.22,4.13625,18.1637,41.3727,36.9252
1980-01-28 00:30:14,1,3.7637,-0.057037,3.10148,0.369411,1,1,57483.8,56851.0,1691,0.92699438,2.1565504,240.94336,291.21289,2.73181,478.65,6.0259,17.8436,30.8057,30.6356
1980-01-28 00:30:54,1,3.79302,-0.0215116,3.38372,0.417888,1,1,104251.0,81523.5,1691,0.92699438,2.1565504,240.93945,291.21289,2.62065,492.17,7.10027,14.4142,41.4856,36.6859
1980-01-28 00:31:35,1,3.75433,-0.0535433,3.48031,0.380549,1,1,52147.6,40507.7,1691,0.92699736,2.1564846,240.9314,291.21265,2.6651,479.417,7.64805,19.7257,29.341,25.8599
1980-01-28 00:32:15,1,3.76597,-0.185417,3.57569,0.369568,1,1,79810.0,69954.3,1691,0.9270004,2.1564188,240.92334,291.2124,2.47155,489.66,8.32529,12.0099,36.2983,33.9833
1980-01-28 00:32:56,1,3.75108,0.0438849,3.61799,0.351714,1,1,53937.4,44680.9,1691,0.9270004,2.1564188,240.91943,291.2124,2.64509,479.39,6.5197,15.5797,29.8403,27.1593
1980-01-28 00:33:36,1,3.7007,-0.206294,3.58182,0.471769,1,1,86098.1,73693.1,1691,0.92700344,2.156353,240.91162,291.2124,2.45225,494.142,5.52547,11.8624,37.7012,34.8796
1980-01-28 00:34:17,1,3.26214,0.306429,3.71643,0.427833,1,1,75308.8,63450.5,1691,0.92700648,2.1562881,240.90747,291.21216,2.97006,480.23,1.41169,15.2322,35.2599,32.365
1980-01-28 00:34:57,1,2.8554,0.123741,3.53022,0.37921,1,1,97587.1,99045.1,1691,0.92700648,2.1562881,240.89966,291.21216,3.33057,493.556,1.16201,13.7094,40.1379,40.4366
1980-01-28 00:35:38,1,3.09214,0.221429,3.60714,0.368103,1,1,72640.8,76039.6,1691,0.92700946,2.1562223,240.8916,291.21191,3.86865,493.909,1.83472,12.4626,34.6297,35.4305
1980-01-28 00:36:18,1,3.26434,0.156643,3.93147,0.387097,1,1,80289.6,73290.5,1691,0.9270125,2.1561565,240.8877,291.21191,3.01963,495.697,-0.28626,12.2654,36.4072,34.7842
1980-01-28 00:36:59,1,3.24667,0.022963,3.62222,0.370667,1,1,70350.3,78222.6,1691,0.9270125,2.1561565,240.87988,291.21191,3.80637,496.105,1.65343,16.0047,34.0793,35.9355
1980-01-28 00:37:39,1,3.19,-0.178571,3.56071,0.445097,1,1,84466.7,84450.9,1691,0.92701554,2.1560907,240.87573,291.21167,3.15018,492.408,3.63478,14.104,37.3423,37.3388
1980-01-28 00:38:20,1,3.22878,-0.27554,3.74604,0.378819,1,1,85734.6,71449.7,1691,0.92701858,2.1560249,240.86768,291.21143,3.55982,487.992,4.88044,16.6901,37.6215,34.3446
1980-01-28 00:39:00,1,3.18273,-0.256115,4.1295,0.390811,1,1,87145.3,76665.9,1691,0.92702156,2.1559591,240.86377,291.21143,2.92848,493.961,4.714,8.43346,37.9297,35.5762
1980-01-28 00:39:41,1,2.88857,-0.23,4.05,0.390839,1,1,100759.0,80607.6,1691,0.92702156,2.1559591,240.85596,291.21143,3.48595,489.528,5.49768,12.0099,40.7849,36.4792
1980-01-28 00:40:21,1,2.8,-0.221678,3.96643,0.752068,1,1,83274.8,81742.8,1691,0.9270246,2.1558943,240.8479,291.21118,3.19053,492.585,6.34604,8.84277,37.0779,36.7352
1980-01-28 00:41:02,1,2.74265,-0.195588,3.92941,0.404682,1,1,90592.2,89478.9,1691,0.92702764,2.1558285,240.84375,291.21094,3.52796,491.865,6.71495,13.3206,38.6726,38.4342
1980-01-28 00:41:42,1,3.05175,-0.127972,4.05245,0.404017,1,1,90899.6,78261.9,1691,0.92702764,2.1558285,240.83594,291.21094,3.22525,491.73,3.21456,10.6842,38.7382,35.9446
1980-01-28 00:42:23,1,3.29603,0.246358,4.0543,0.458531,1,1,70038.2,74136.7,1691,0.92703068,2.1557627,240.83203,291.21094,3.65222,493.255,2.3445,12.9343,34.0036,34.9844
1980-01-28 00:43:03,1,3.52868,-0.179412,4.06985,0.401714,1,1,87329.4,84170.8,1691,0.92703366,2.1556969,240.82397,291.21069,2.91545,495.415,0.965641,8.54849,37.9698,37.2768
1980-01-28 00:43:44,1,3.00791,0.130935,3.86906,0.439385,1,1,85183.8,72677.5,1691,0.92703372,2.1556969,240.82007,291.21069,3.54505,492.363,2.86017,13.2983,37.5004,34.6384
1980-01-28 00:44:24,1,3.06149,0.254054,3.75811,0.391966,1,1,82788.3,86555.5,1691,0.9270367,2.1556311,240.81201,291.21045,3.10374,495.153,-0.830278,11.6681,36.9694,37.8012
1980-01-28 00:45:05,1,3.3482,0.456115,3.72446,0.447263,1,1,65527.1,77843.1,1691,0.92703974,2.1555653,240.8042,291.21045,3.64906,491.058,2.7225,16.8025,32.8903,35.8482
1980-01-28 00:45:45,1,3.34148,-0.612593,4.02444,0.436702,1,1,58713.7,91167.2,1691,0.92703974,2.1555653,240.80029,291.21045,3.06837,492.459,10.1867,10.4287,31.1335,38.7951
1980-01-28 00:46:26,1,2.97643,-1.25571,4.12071,0.585098,1,1,64661.5,70747.6,1691,0.92704278,2.1554995,240.79224,291.21021,3.48428,497.381,2.79181,9.81833,32.6724,34.1754
1980-01-28 00:47:06,1,3.10699,-1.09441,3.8972,0.547898,1,1,82684.5,93851.6,1691,0.92704582,2.1554346,240.78809,291.20996,3.37763,490.911,10.3456,12.0651,36.9462,39.3621
1980-01-28 00:47:47,1,3.12929,-0.937857,3.79143,0.534048,1,1,78272.7,83823.4,1691,0.92704582,2.1554346,240.78027,291.20996,3.30735,487.734,2.92196,13.6481,35.947,37.1998
1980-01-28 00:48:27,1,2.17427,-2.17135,3.8076,0.590552,1,1,68527.8,70789.8,1691,0.9270488,2.1553688,240.77246,291.20996,2.78671,494.009,1.43041,14.6948,33.635,34.1856
1980-01-28 00:49:08,1,2.77122,-1.82086,4.00576,0.46881,1,1,60595.2,71877.3,1691,0.92705184,2.155303,240.76831,291.20972,3.08387,497.591,7.07275,16.6098,31.6284,34.4472
1980-01-28 00:49:48,1,2.89559,-1.91618,4.40515,0.425719,1,1,61455.1,56030.6,1691,0.92705184,2.155303,240.7605,291.20972,2.80253,493.434,-3.17638,17.3824,31.852,30.4138
1980-01-28 00:50:29,1,3.15468,-1.81655,4.36978,0.430572,1,1,57664.9,77247.9,1691,0.92705488,2.1552372,240.75635,291.20947,2.94123,498.593,3.57208,15.8801,30.8541,35.7109
1980-01-28 00:51:09,1,1.32849,-3.3162,3.80782,0.479273,1,1,65107.4,85996.3,1691,0.92705792,2.1551714,240.74854,291.20947,2.94975,500.246,11.5726,11.3742,32.7848,37.6789
1980-01-28 00:51:50,1,1.88058,-3.04029,3.8482,0.420337,1,1,73751.6,75350.1,1691,0.92705792,2.1551714,240.74463,291.20947,3.2103,495.765,13.4154,14.1944,34.8934,35.2696
1980-01-28 00:52:30,1,1.62308,-3.13776,3.7958,0.467005,1,1,79021.9,82357.5,1691,0.9270609,2.1551056,240.73657,291.20923,3.17772,495.507,12.1644,10.412,36.1187,36.8731
1980-01-28 00:53:11,1,1.49071,-2.96071,3.11071,0.411667,1,1,69976.4,67007.5,1691,0.92706394,2.1550407,240.72852,291.20898,3.11231,496.215,14.2432,15.3771,33.9886,33.2598
1980-01-28 00:53:51,1,0.829252,-2.51224,3.86463,0.382244,1,1,79061.3,67715.4,1691,0.92706394,2.1550398,240.72461,291.20898,3.50251,501.234,2.79612,11.6422,36.1277,33.435
1980-01-28 00:54:32,1,0.507353,-2.77206,3.82132,0.426982,1,1,63462.0,58788.6,1691,0.92706698,2.1549749,240.7168,291.20898,3.37925,500.783,9.90316,13.5775,32.3679,31.1533
1980-01-28 00:55:12,1,0.488079,-2.79735,3.89801,0.409222,1,1,61181.9,69535.6,1691,0.92707002,2.1549091,240.71265,291.20874,3.27146,504.761,8.13137,14.141,31.7811,33.8814
1980-01-28 00:55:53,1,0.523704,-2.79333,3.79259,0.375162,1,1,60616.8,58820.9,1691,0.92707002,2.1549091,240.70483,291.20874,3.42173,500.433,10.0018,11.8158,31.634,31.1619
1980-01-28 00:56:33,1,0.205556,-2.73403,3.6125,0.47064,1,1,76873.1,64284.8,1691,0.927073,2.1548433,240.70068,291.2085,3.5028,500.108,7.14141,13.3803,35.6242,32.5771
1980-01-28 00:57:14,1,0.541139,-2.5519,3.81962,0.607476,1,1,53490.2,59617.6,1691,0.92707604,2.1547775,240.69287,291.2085,3.33941,497.55,11.0593,13.3391,29.7163,31.3722
1980-01-28 00:57:55,1,1.02555,-2.58029,3.8708,0.398726,1,1,67027.0,73663.1,1691,0.92707604,2.1547775,240.68506,291.2085,3.53512,497.199,7.85771,12.4235,33.2646,34.8725
1980-01-28 00:58:35,1,1.63088,-2.55735,4.23603,0.556488,1,1,56029.3,50853.2,1691,0.92707908,2.1547117,240.68091,291.20825,2.87043,501.05,2.88438,15.2493,30.4134,28.9746
1980-01-28 00:59:15,1,1.53957,-2.78129,4.33022,0.488404,1,1,48381.9,61386.9,1691,0.92708212,2.1546459,240.67285,291.20801,3.05857,497.364,5.30441,12.389,28.2618,31.8343
1980-01-28 00:59:56,1,1.69236,-2.52361,4.41528,0.471756,1,1,42589.0,51281.8,1691,0.92708212,2.1546459,240.66895,291.20801,2.91387,497.335,5.27334,14.0967,26.5159,29.0964
1980-01-28 01:00:36,1,1.74029,-1.86619,5.0,0.651316,1,1,63370.8,36200.2,1691,0.92708516,2.1545811,240.66113,291.20801,3.46641,504.204,-6.03905,15.9392,32.3446,24.4463
1980-01-28 01:01:17,1,1.91633,-2.30748,4.32245,0.828073,1,1,50779.9,59845.0,1691,0.92708814,2.1545153,240.65308,291.20776,2.94773,497.883,1.737,13.6361,28.9537,31.432
1980-01-28 01:01:57,1,2.35417,-1.52361,4.92014,0.855167,1,1,59529.3,51435.9,1691,0.92708814,2.1545153,240.64917,291.20776,2.81807,494.666,-2.27809,14.4187,31.349,29.1401
1980-01-28 01:02:38,1,1.84755,-2.5986,4.22867,0.439077,1,1,55178.9,56948.1,1691,0.92709118,2.1544495,240.64111,291.20752,3.15198,499.278,2.84731,18.3913,30.1818,30.6618
1980-01-28 01:03:18,1,1.41184,-2.52566,4.01711,0.383235,1,1,61015.6,56342.2,1691,0.92709422,2.1543837,240.63721,291.20752,3.33114,504.27,-1.94224,15.0655,31.7379,30.4982
1980-01-28 01:03:59,1,1.38201,-2.55396,4.02734,0.455711,1,1,54405.0,55965.6,1691,0.92709422,2.1543837,240.62939,291.20752,3.27326,500.851,2.60809,13.826,29.9693,30.3962
1980-01-28 01:04:39,1,1.28302,-2.58679,3.84591,0.409796,1,1,68808.9,53054.3,1691,0.9270972,2.1543179,240.62524,291.20728,3.35348,504.734,-1.06327,15.1468,33.7039,29.595
1980-01-28 01:05:20,1,1.04792,-2.81806,3.74375,0.366163,1,1,50896.2,63191.7,1691,0.92710024,2.1542521,240.61719,291.20703,2.9371,502.967,4.57897,16.5011,28.9868,32.2989
1980-01-28 01:06:00,1,0.997203,-2.52727,3.51608,0.668029,1,1,69830.9,58695.4,1691,0.92710328,2.1541872,240.60938,291.20703,3.52834,505.531,-3.83415,15.4061,33.9533,31.1286
1980-01-28 01:06:41,1,1.52778,-2.09931,3.80833,0.829026,1,1,82676.0,78042.1,1691,0.92710328,2.1541872,240.60547,291.20703,3.29062,501.485,0.959897,12.3624,36.9443,35.894
1980-01-28 01:07:21,1,0.566434,-3.14755,3.56364,0.464596,1,1,71870.1,56181.1,1691,0.92710626,2.1541214,240.59741,291.20679,2.86797,501.309,-1.25395,14.287,34.4455,30.4546
1980-01-28 01:08:02,1,0.806475,-2.20432,3.99856,0.598447,1,1,75290.6,63719.3,1691,0.9271093,2.1540556,240.59326,291.20654,3.21857,502.677,-1.1911,10.3324,35.2556,32.4335
1980-01-28 01:08:42,1,0.313514,-2.2973,3.39595,0.670465,1,1,79846.8,71618.1,1691,0.9271093,2.1540556,240.58545,291.20654,3.35709,506.222,-3.66136,14.0492,36.3067,34.385
1980-01-28 01:09:23,1,-0.0034965,-2.61189,3.57552,0.61441,1,1,87666.7,82529.5,1691,0.92711234,2.1539898,240.57764,291.20654,3.5637,511.704,3.53856,13.3688,38.043,36.9116
1980-01-28 01:10:03,1,3.00174,-0.213953,4.0686,1.33597,1,1,74943.1,62797.0,1691,0.92711532,2.153924,240.57349,291.2063,3.55051,494.267,-10.7457,10.0964,35.1742,32.1979
1980-01-28 01:10:44,1,3.45852,1.07778,4.32593,0.633627,1,1,90676.4,66425.8,1691,0.92711532,2.153924,240.56567,291.2063,3.04555,488.037,-13.4646,11.6802,38.6906,33.1151
1980-01-28 01:11:24,1,3.3163,1.69778,4.14519,0.478948,1,1,76827.3,46343.7,1691,0.92711836,2.1538582,240.56152,291.20605,3.41212,496.128,-11.8697,11.2053,35.6136,27.6601
1980-01-28 01:12:05,1,3.33162,1.70294,4.08309,0.517232,1,1,70249.6,59767.0,1691,0.9271214,2.1537933,240.55371,291.20605,3.6568,491.586,-5.24017,11.4179,34.0549,31.4115
1980-01-28 01:12:45,1,3.7021,1.10559,4.21189,0.463452,1,1,63050.8,62068.5,1691,0.9271214,2.1537933,240.5498,291.20605,2.95702,497.151,-7.54078,11.6087,32.2629,32.0106
1980-01-28 01:13:26,1,3.69044,1.19706,4.09044,0.445186,1,1,58160.0,51092.3,1691,0.92712438,2.1537275,240.54175,291.20581,3.12488,499.434,-0.651056,16.0331,30.9863,29.0426
1980-01-28 01:14:06,1,3.48596,0.703509,3.75205,0.599176,1,1,70174.8,66537.9,1691,0.92712742,2.1536617,240.53369,291.20557,2.97564,498.344,-4.55857,14.6444,34.0368,33.143
1980-01-28 01:14:47,1,3.16643,-0.501399,4.35105,0.725923,1,1,76441.0,49051.5,1691,0.92712742,2.1536617,240.52979,291.20557,3.50973,503.96,11.9071,13.1468,35.5239,28.4567
1980-01-28 01:15:27,1,2.87095,-0.617568,4.57027,0.496532,1,1,72677.9,75748.8,1691,0.92713046,2.1535959,240.52197,291.20557,3.12802,503.733,13.2292,7.16492,34.6385,35.3627
1980-01-28 01:16:08,1,1.44694,-1.80952,4.45306,2.12087,1,1,64362.7,35397.7,1691,0.92713344,2.1535301,240.51782,291.20532,3.22453,515.788,14.2905,14.5308,32.5968,24.1738
1980-01-28 01:16:48,1,0.12449,-3.30952,4.23061,0.76971,1,1,128380.0,101030.0,1691,0.92713344,2.1535301,240.51001,291.20532,2.96114,507.001,-7.50055,20.1327,46.037,40.8398
1980-01-28 01:17:29,1,0.0698529,-3.37426,4.59044,0.44295,1,1,88023.3,91207.1,1691,0.92713648,2.1534643,240.5061,291.20532,2.39951,505.352,-19.1893,17.9308,38.1203,38.8036
1980-01-28 01:18:09,1,-0.511888,-3.53357,4.48671,0.472558,1,1,116551.0,87294.1,1691,0.92713952,2.1533995,240.49805,291.20508,2.51996,502.128,-21.201,18.8654,43.8649,37.9621
1980-01-28 01:18:50,1,-0.045,-3.31,4.64643,0.92775,1,1,89676.5,89462.7,1691,0.92713952,2.1533995,240.49023,291.20508,2.73141,500.427,-23.4265,16.0582,38.4766,38.4308
1980-01-28 01:19:30,1,1.08163,-2.91905,4.86735,0.547538,1,1,84495.6,87505.2,1691,0.92714256,2.1533337,240.48608,291.20483,2.56815,518.661,-8.73355,25.4643,37.3486,38.008
1980-01-28 01:20:11,1,0.191111,-3.42519,4.54741,0.484732,1,1,104090.0,82434.8,1691,0.92714554,2.1532679,240.47827,291.20483,2.74983,508.484,-16.636,17.1626,41.4537,36.8904
1980-01-28 01:20:51,1,0.0978571,-3.78357,4.23643,0.495161,1,1,93644.5,96747.8,1691,0.92714554,2.1532679,240.47437,291.20483,2.30115,512.124,-12.1219,18.4194,39.3187,39.9649
1980-01-28 01:21:32,1,0.86993,-3.22937,4.76154,0.669703,1,1,84806.2,89201.6,1691,0.92714858,2.1532021,240.46631,291.20459,2.75623,510.792,-14.1288,20.1162,37.4172,38.3746
1980-01-28 01:22:12,1,0.674468,-2.96879,4.38227,1.05035,1,1,106104.0,71471.6,1691,0.92715162,2.1531363,240.46216,291.20435,2.8995,514.986,-18.7754,27.8996,41.8527,34.3498
1980-01-28 01:22:53,1,1.03566,0.582517,3.74545,1.38116,1,1,67884.2,79774.7,1691,0.92715162,2.1531363,240.45435,291.20435,4.28444,513.749,-17.4488,21.6953,33.4767,36.2903
1980-01-28 01:23:33,1,0.710204,1.62245,3.39796,0.577939,1,1,76544.1,79163.5,1691,0.9271546,2.1530704,240.44653,291.20435,4.23044,513.662,-15.5065,20.9518,35.5479,36.151
1980-01-28 01:24:14,1,0.213194,1.70069,3.30139,0.52158,1,1,90118.5,86598.6,1691,0.92715764,2.1530056,240.44238,291.2041,4.67895,513.257,-16.836,22.4423,38.5714,37.8106
1980-01-28 01:24:54,1,0.0524476,1.83776,3.03007,0.524194,1,1,74291.8,71747.6,1691,0.92715764,2.1530056,240.43457,291.2041,4.42581,513.002,-17.7503,21.8508,35.021,34.4161
1980-01-28 01:25:35,1,-0.197931,1.68897,2.76966,0.497429,1,1,82276.3,86793.1,1691,0.92716068,2.1529398,240.43042,291.20386,4.72989,517.0,-18.3358,22.0004,36.8549,37.853
1980-01-28 01:26:15,1,-0.239073,1.37748,2.69338,0.674298,1,1,83902.0,74354.7,1691,0.92716366,2.152874,240.42261,291.20386,4.3027,513.415,-19.8103,17.9904,37.2172,35.0358
1980-01-28 01:26:56,1,-0.72963,0.462963,2.34,0.502883,1,1,94340.7,82417.8,1691,0.92716366,2.152874,240.41479,291.20386,4.50933,515.417,-21.84,18.3336,39.4646,36.8866
1980-01-28 01:27:36,1,-1.05139,-0.455556,2.08819,0.575454,1,1,70130.8,70953.5,1691,0.9271667,2.1528082,240.41064,291.20361,4.40588,513.275,-20.5005,17.2868,34.0261,34.2251
1980-01-28 01:28:17,1,-1.12086,-0.861151,2.24029,0.480363,1,1,81376.3,82224.2,1691,0.92716974,2.1527424,240.40259,291.20337,4.48786,514.517,-21.8932,15.2809,36.6528,36.8432
1980-01-28 01:28:57,1,-1.04312,-0.85125,2.505,0.414187,1,1,76610.6,75611.2,1691,0.92716974,2.1527424,240.39868,291.20337,4.2405,512.67,-20.762,17.415,35.5633,35.3306
1980-01-28 01:29:38,1,-0.958042,-0.816783,2.68042,0.484682,1,1,78518.7,76310.1,1691,0.92717272,2.1526766,240.39087,291.20337,4.30765,511.076,-24.4529,17.8278,36.0035,35.4935
1980-01-28 01:30:18,1,-0.964336,-0.934965,2.94685,0.638997,1,1,79541.1,74370.6,1691,0.92717576,2.1526117,240.38672,291.20313,4.44029,512.663,-19.8636,17.8634,36.2371,35.0395
1980-01-28 01:30:59,1,-1.10946,-0.862162,2.58649,0.460815,1,1,76066.6,76475.7,1691,0.92717576,2.1526108,240.37891,291.20313,4.50297,510.329,-24.0464,17.7435,35.4368,35.532
1980-01-28 01:31:39,1,-1.01469,-0.795804,2.61958,0.536903,1,1,68651.8,69804.8,1691,0.9271788,2.1525459,240.37085,291.20288,4.2684,511.807,-20.5001,18.4235,33.6654,33.9469
1980-01-28 01:32:20,1,-0.463309,-1.31799,2.75324,0.571719,1,1,85262.5,89697.2,1691,0.92718178,2.1524801,240.36694,291.20288,4.35338,514.594,-20.0112,19.8929,37.5178,38.4811
1980-01-28 01:33:00,1,0.102857,-1.69429,2.955,0.494114,1,1,62263.5,70122.3,1691,0.92718482,2.1524143,240.35889,291.20264,3.86267,515.93,-17.6941,20.7163,32.0608,34.024
1980-01-28 01:33:41,1,0.63037,-1.5163,3.3237,0.497801,1,1,98716.2,87216.6,1691,0.92718482,2.1524143,240.35498,291.20264,4.3964,511.498,-22.491,20.7215,40.3694,37.9452
1980-01-28 01:34:21,1,0.887162,-1.44122,3.48784,0.512824,1,1,84401.1,73563.1,1691,0.92718786,2.1523485,240.34692,291.20239,4.25463,514.078,-17.5848,20.2788,37.3278,34.8488